Temp
13 12 11 11 11 13 14 15 16 16 17 14 14 14 16 15 16 17 19 19 18 17 17 17 16 14 14 14 13 12 13 12
13 12 11 10 10 9 9 13 14 14 13 13 14 14 14 18 15 14 18 19 18 18 17 16 16 15 15 14 13 12 12 12
12 11 10 10 9 8 7 8 10 10 9 10 13 15 14 13 13 14 18 17 18 18 17 16 16 15 14 13 13 12 12 11
11 10 9 8 8 7 6 6 6 9 8 9 11 13 14 13 12 14 17 16 17 17 17 16 15 14 13 12 12 12 11 11
10 9 8 6 6 4 7 7 6 7 8 7 9 12 14 14 13 15 16 15 16 17 17 16 15 14 14 14 12 11 11 12
8 7 6 6 4 5 7 7 7 7 7 7 7 10 13 15 13 12 13 14 18 17 17 17 14 15 15 14 12 12 12 11
7 7 6 5 4 3 5 7 7 7 7 8 8 9 12 14 14 12 12 13 15 17 17 16 15 16 17 16 14 12 12 11
7 6 5 4 2 3 5 6 6 7 7 8 9 9 11 13 13 13 12 13 14 15 17 16 15 16 16 15 15 12 11 11
6 4 3 2 1 1 5 6 6 7 8 9 10 10 11 12 12 12 12 13 13 12 15 16 15 14 16 14 14 12 11 11
4 3 2 1 1 2 3 5 5 6 7 9 11 12 12 12 12 12 12 12 12 12 14 13 14 10 14 14 13 11 12 11
3 2 1 0 0 2 3 4 3 5 7 9 11 12 12 12 12 12 12 12 12 11 11 13 12 10 11 13 12 12 11 11
2 1 1 -0 -1 1 3 5 4 6 7 9 10 10 11 11 11 11 11 12 12 13 13 13 12 11 11 13 11 11 11 10
1 1 0 -1 -1 1 2 3 4 4 5 7 9 10 10 11 11 11 11 11 11 11 14 14 13 11 11 11 11 11 11 10
1 0 -1 -1 -2 -1 2 2 2 3 4 6 8 9 10 10 10 10 11 11 10 12 12 15 14 11 10 11 11 10 10 10
-1 -1 -1 -2 -3 -2 1 1 0 1 1 4 6 8 9 10 10 10 10 10 12 12 12 14 13 11 10 10 10 10 10 10
-2 -2 -3 -3 -3 -2 -1 -0 -0 -1 1 5 5 6 9 7 10 10 10 10 10 10 11 11 11 11 10 10 10 9 9 9
-3 -3 -4 -4 -4 -2 -2 -1 -2 -1 -0 -0 1 4 5 6 7 9 9 9 9 10 10 10 10 10 10 9 9 9 9 9
-5 -5 -5 -5 -4 -3 -3 -2 -2 -2 -1 -1 0 1 1 3 4 5 4 7 7 8 9 9 10 9 9 9 8 8 8 8
-6 -6 -6 -5 -4 -3 -3 -3 -3 -3 -2 -1 -1 0 1 1 1 2 2 2 4 4 6 8 9 8 9 8 8 8 8 8
Height
1457 1456 1454 1452 1451 1449 1448 1446 1445 1444 1444 1445 1446 1447 1444 1449 1450 1453 1455 1458 1462 1466 1469 1471 1475 1479 1481 1484 1487 1488 1491 1494
1454 1453 1452 1449 1447 1444 1442 1441 1439 1437 1436 1437 1438 1436 1435 1438 1441 1443 1446 1448 1453 1458 1462 1466 1470 1472 1475 1478 1483 1485 1486 1490
1449 1447 1446 1444 1443 1440 1436 1433 1431 1429 1428 1429 1431 1432 1431 1430 1433 1435 1436 1441 1445 1450 1454 1459 1463 1467 1470 1473 1477 1480 1482 1486
1448 1445 1443 1440 1436 1432 1429 1426 1423 1421 1419 1418 1420 1422 1424 1423 1422 1423 1427 1433 1436 1440 1446 1453 1457 1461 1465 1468 1472 1477 1478 1481
1445 1443 1440 1437 1433 1426 1421 1417 1414 1411 1410 1410 1413 1413 1414 1414 1414 1413 1417 1422 1427 1433 1438 1442 1447 1454 1460 1464 1469 1473 1476 1476
1442 1439 1437 1433 1427 1420 1414 1409 1406 1403 1401 1400 1401 1404 1406 1409 1410 1409 1410 1412 1418 1424 1427 1429 1427 1444 1451 1457 1462 1468 1470 1472
1440 1437 1433 1429 1424 1416 1409 1403 1399 1396 1392 1391 1390 1393 1397 1401 1403 1402 1403 1405 1407 1416 1421 1423 1428 1431 1438 1448 1453 1460 1464 1467
1438 1434 1429 1423 1418 1411 1404 1396 1392 1388 1383 1381 1381 1382 1386 1392 1396 1397 1397 1400 1404 1407 1413 1417 1421 1427 1433 1440 1442 1452 1456 1460
1437 1433 1428 1422 1415 1406 1399 1390 1385 1379 1375 1372 1372 1374 1378 1384 1389 1392 1393 1396 1400 1404 1409 1413 1416 1420 1426 1428 1437 1446 1450 1453
1436 1432 1426 1421 1411 1403 1396 1388 1383 1376 1370 1365 1365 1369 1373 1376 1381 1386 1389 1393 1397 1399 1402 1406 1412 1418 1421 1428 1434 1439 1443 1447
1435 1431 1426 1420 1410 1403 1396 1388 1381 1373 1367 1363 1364 1366 1368 1371 1374 1378 1383 1388 1389 1391 1397 1403 1407 1415 1422 1423 1430 1434 1437 1440
1435 1432 1427 1419 1411 1403 1394 1385 1379 1373 1367 1363 1363 1364 1365 1366 1368 1372 1378 1380 1382 1386 1394 1400 1407 1411 1416 1418 1423 1428 1431 1434
1436 1432 1426 1420 1412 1405 1395 1387 1383 1376 1369 1364 1361 1361 1360 1364 1366 1367 1372 1376 1380 1385 1386 1393 1400 1409 1412 1414 1418 1421 1424 1428
1437 1433 1429 1423 1415 1405 1396 1389 1385 1378 1370 1364 1362 1360 1359 1361 1364 1366 1368 1372 1376 1379 1384 1387 1393 1402 1405 1410 1413 1417 1421 1423
1439 1435 1431 1425 1417 1406 1399 1393 1387 1380 1375 1367 1362 1359 1359 1359 1360 1360 1368 1370 1374 1377 1382 1382 1387 1396 1402 1405 1409 1413 1415 1417
1441 1437 1431 1427 1418 1408 1403 1397 1390 1383 1375 1364 1365 1359 1359 1352 1359 1363 1365 1368 1371 1374 1374 1379 1382 1388 1395 1401 1404 1407 1408 1411
1442 1439 1433 1430 1418 1412 1407 1402 1396 1387 1379 1375 1371 1364 1361 1360 1358 1360 1362 1363 1367 1372 1373 1376 1379 1383 1391 1397 1399 1402 1403 1405
1443 1440 1436 1430 1421 1416 1412 1407 1402 1393 1387 1381 1374 1370 1364 1361 1360 1361 1361 1357 1359 1361 1367 1371 1375 1381 1387 1392 1396 1398 1398 1399
1442 1440 1436 1430 1425 1421 1417 1412 1406 1400 1393 1386 1380 1375 1371 1370 1369 1368 1366 1362 1360 1352 1357 1366 1371 1378 1384 1389 1392 1393 1393 1394
Wind_Speed
7 10 12 14 16 19 20 24 27 27 27 25 26 28 37 35 39 43 36 38 41 39 35 35 31 30 31 29 30 27 26 25
9 11 13 15 17 20 21 23 26 28 26 21 26 30 34 40 38 38 42 41 41 39 36 36 33 32 31 29 28 27 26 26
12 16 18 19 19 20 21 22 24 25 24 23 24 29 30 33 34 37 48 44 42 39 38 37 35 33 31 29 29 28 28 26
12 16 18 21 23 24 23 24 23 26 26 25 27 27 30 30 32 39 48 46 44 43 37 36 36 33 31 27 27 28 29 28
12 15 17 20 21 23 26 28 28 29 27 23 24 28 34 35 33 41 44 46 48 42 37 38 38 33 29 27 26 26 29 31
14 17 18 19 22 25 28 29 28 28 28 27 26 30 34 34 30 34 40 44 49 46 41 32 41 27 26 25 27 29 30 32
16 17 19 20 22 26 28 28 28 26 25 25 28 30 34 34 32 34 35 42 49 43 40 41 39 38 39 33 29 31 32 32
18 21 24 24 25 29 32 30 29 26 22 22 26 31 36 37 32 32 34 40 44 45 42 44 43 44 36 44 36 34 32 34
19 21 23 24 26 29 33 31 30 26 21 20 23 23 31 35 33 32 33 36 39 40 40 35 47 44 36 45 36 37 30 33
20 22 23 25 27 30 33 30 28 25 20 16 16 19 26 31 32 31 32 27 26 31 40 43 29 31 50 36 38 36 32 34
20 22 24 24 26 28 29 27 28 25 19 7 9 16 24 29 30 30 30 28 31 30 34 34 32 42 40 40 36 34 30 31
18 21 23 24 24 27 30 29 29 24 17 5 4 10 16 21 24 28 33 34 33 37 31 20 19 36 36 36 29 30 27 30
16 20 23 25 26 29 29 30 29 24 20 12 2 6 10 14 19 19 25 31 31 35 31 18 25 25 28 28 31 30 27 28
16 19 22 23 26 30 28 28 29 25 22 14 8 1 8 12 14 18 24 26 31 32 32 38 46 33 28 30 28 28 28 26
15 17 19 22 24 29 30 28 26 23 21 19 13 9 2 4 10 10 16 24 27 28 32 32 30 29 27 26 25 26 27 26
14 16 19 21 24 28 30 28 29 28 22 20 18 10 7 5 7 12 19 21 24 29 31 32 30 26 25 26 27 27 22 23
14 15 17 19 24 26 28 28 29 28 26 23 19 13 8 6 3 13 21 27 30 30 31 27 26 24 26 26 24 24 22 22
13 15 16 17 23 24 25 27 28 28 28 26 24 20 20 17 13 7 9 23 32 34 35 29 26 26 25 22 22 21 20 21
13 13 15 18 19 21 22 24 26 29 29 29 27 26 23 20 17 13 5 7 15 18 25 25 27 24 21 19 19 18 17 16
Wind_Direction
345 343 335 327 320 306 294 280 276 270 263 248 243 240 243 238 240 242 240 242 241 237 236 237 233 224 230 229 228 227 231 233
340 342 340 335 326 316 305 289 280 279 271 262 246 239 240 240 234 233 237 236 239 239 238 237 232 228 229 230 229 226 226 225
348 347 344 339 332 324 313 303 285 282 277 268 245 245 243 240 232 230 236 233 236 238 237 235 231 227 226 227 228 221 220 217
351 346 342 336 332 328 321 309 300 289 278 270 257 240 240 237 232 233 236 233 233 234 234 234 229 226 224 223 229 222 221 219
350 343 337 335 330 325 322 314 303 300 283 271 259 238 237 235 236 236 231 231 234 233 234 231 225 223 228 231 233 230 226 224
351 344 336 333 333 332 330 317 307 302 291 273 254 249 236 237 237 231 226 229 231 230 229 234 220 220 231 240 235 230 233 228
350 344 339 335 335 336 336 325 315 308 291 276 256 249 235 232 232 227 224 226 227 229 229 225 224 223 235 236 238 236 232 233
349 346 343 339 337 340 339 334 325 316 296 275 259 246 232 229 228 228 225 218 222 225 224 224 222 225 233 239 238 237 233 232
352 347 345 339 340 342 342 336 332 326 307 283 256 239 226 226 224 228 230 222 219 222 221 230 226 216 231 228 228 226 230 231
354 350 348 343 344 347 346 342 339 333 316 291 237 223 218 221 225 228 228 221 218 222 216 215 225 246 223 223 221 225 228 229
356 353 347 345 348 348 350 347 348 343 333 321 228 236 233 231 226 223 231 215 213 208 210 204 219 221 225 225 218 226 234 227
354 352 351 349 352 353 356 355 351 353 353 21 240 259 238 233 228 222 221 225 225 218 201 210 234 227 231 235 222 228 232 234
356 356 357 355 357 360 2 4 355 358 359 16 30 232 218 242 235 219 217 222 223 207 202 220 238 247 230 230 212 231 229 229
0 1 359 358 0 8 8 6 1 356 3 13 21 177 182 200 208 210 215 205 203 197 211 227 223 230 224 226 227 224 226 230
3 4 360 0 5 13 14 10 10 3 8 16 23 30 189 208 192 196 215 204 200 205 209 211 208 207 210 213 220 224 230 231
6 4 4 359 9 17 19 15 12 18 20 20 5 19 328 357 215 213 207 204 209 205 194 187 187 196 210 219 226 224 227 230
8 6 8 1 15 19 22 22 21 25 29 38 35 39 41 34 333 209 210 204 197 198 188 188 194 201 213 216 217 217 223 230
8 6 6 9 23 22 25 27 28 32 37 39 45 46 51 46 35 332 230 186 183 176 184 190 194 203 201 209 217 220 222 227
15 9 13 25 30 32 32 34 35 36 40 44 45 50 54 61 62 51 55 137 150 130 143 171 181 193 202 204 208 215 222 224